Time,TemperatureF,DewpointF,PressureIn,WindDirection,WindDirectionDegrees,WindSpeedMPH,WindSpeedGustMPH,Humidity,HourlyPrecipIn,Conditions,Clouds,dailyrainin,SoftwareType,DateUTC
2013-04-14 00:00:00,39.7,34.4,29.90,SW,225,0.0,2.0,81,0.00,,,0.01,VWS V14.01,2013-04-14 04:00:00,
2013-04-14 00:05:00,39.7,34.4,29.90,SSW,202,1.0,1.0,81,0.00,,,0.00,VWS V14.01,2013-04-14 04:05:00,
2013-04-14 00:10:00,39.7,34.4,29.90,SSW,201,0.0,1.0,81,0.00,,,0.00,VWS V14.01,2013-04-14 04:10:00,
2013-04-14 00:15:00,39.6,34.6,29.90,SSW,201,0.0,1.0,82,0.00,,,0.00,VWS V14.01,2013-04-14 04:15:00,
2013-04-14 00:20:00,39.6,34.6,29.90,SSW,203,0.0,1.0,82,0.00,,,0.00,VWS V14.01,2013-04-14 04:20:00,
2013-04-14 00:25:00,39.6,34.6,29.90,SSW,200,0.0,1.0,82,0.00,,,0.00,VWS V14.01,2013-04-14 04:25:00,
2013-04-14 00:30:00,39.6,34.6,29.90,South,187,0.0,1.0,82,0.00,,,0.00,VWS V14.01,2013-04-14 04:30:00,
2013-04-14 00:35:00,39.6,34.6,29.90,South,187,0.0,1.0,82,0.00,,,0.00,VWS V14.01,2013-04-14 04:35:00,
2013-04-14 00:40:00,39.7,34.7,29.90,SSW,193,1.0,1.0,82,0.00,,,0.00,VWS V14.01,2013-04-14 04:40:00,
2013-04-14 00:45:00,39.7,34.7,29.90,South,191,0.0,1.0,82,0.00,,,0.00,VWS V14.01,2013-04-14 04:45:00,
2013-04-14 00:50:00,39.7,34.7,29.90,South,186,0.0,2.0,82,0.00,,,0.00,VWS V14.01,2013-04-14 04:50:00,
2013-04-14 00:55:00,39.8,34.8,29.90,SSW,203,2.0,2.0,82,0.00,,,0.00,VWS V14.01,2013-04-14 04:55:00,
2013-04-14 01:00:00,39.8,34.8,29.91,South,180,0.0,2.0,82,0.00,,,0.00,VWS V14.01,2013-04-14 05:00:00,
2013-04-14 01:05:00,39.8,34.8,29.91,South,172,1.0,3.0,82,0.00,,,0.00,VWS V14.01,2013-04-14 05:05:00,
2013-04-14 01:10:00,39.9,34.9,29.91,SSW,195,0.0,3.0,82,0.00,,,0.00,VWS V14.01,2013-04-14 05:10:00,
2013-04-14 01:15:00,39.9,34.9,29.91,SSW,195,1.0,3.0,82,0.00,,,0.00,VWS V14.01,2013-04-14 05:15:00,
2013-04-14 01:20:00,39.9,34.9,29.91,SSW,207,0.0,3.0,82,0.00,,,0.00,VWS V14.01,2013-04-14 05:20:00,
2013-04-14 01:25:00,40.0,35.0,29.91,SSW,212,0.0,3.0,82,0.00,,,0.00,VWS V14.01,2013-04-14 05:25:00,
2013-04-14 01:30:00,40.0,35.0,29.91,SW,218,0.0,3.0,82,0.00,,,0.00,VWS V14.01,2013-04-14 05:30:00,
2013-04-14 01:35:00,40.1,34.8,29.91,SSW,213,1.0,4.0,81,0.00,,,0.00,VWS V14.01,2013-04-14 05:35:00,
2013-04-14 01:40:00,40.2,34.8,29.91,SSW,204,1.0,4.0,81,0.00,,,0.00,VWS V14.01,2013-04-14 05:40:00,
2013-04-14 01:45:00,40.2,34.8,29.91,SSW,204,0.0,4.0,81,0.00,,,0.00,VWS V14.01,2013-04-14 05:45:00,
2013-04-14 01:50:00,40.2,34.8,29.91,SSW,210,0.0,4.0,81,0.00,,,0.00,VWS V14.01,2013-04-14 05:50:00,
2013-04-14 01:55:00,40.3,34.9,29.91,SSW,207,2.0,4.0,81,0.00,,,0.00,VWS V14.01,2013-04-14 05:55:00,
2013-04-14 02:00:00,40.3,35.2,29.91,SSW,207,0.0,4.0,82,0.00,,,0.00,VWS V14.01,2013-04-14 06:00:00,
2013-04-14 02:05:00,40.3,35.2,29.91,SSW,195,0.0,1.0,82,0.00,,,0.00,VWS V14.01,2013-04-14 06:05:00,
2013-04-14 02:10:00,40.2,35.2,29.91,SSW,210,1.0,2.0,82,0.00,,,0.00,VWS V14.01,2013-04-14 06:10:00,
2013-04-14 02:15:00,40.1,35.1,29.91,SW,224,0.0,2.0,82,0.00,,,0.00,VWS V14.01,2013-04-14 06:15:00,
2013-04-14 02:20:00,40.0,35.0,29.91,SW,224,0.0,2.0,82,0.00,,,0.00,VWS V14.01,2013-04-14 06:20:00,
2013-04-14 02:25:00,39.8,35.1,29.91,SW,224,0.0,2.0,83,0.00,,,0.00,VWS V14.01,2013-04-14 06:25:00,
2013-04-14 02:30:00,39.6,34.9,29.91,SSW,197,1.0,2.0,83,0.00,,,0.00,VWS V14.01,2013-04-14 06:30:00,
2013-04-14 02:35:00,39.3,34.9,29.91,SSW,197,0.0,2.0,84,0.00,,,0.00,VWS V14.01,2013-04-14 06:35:00,
2013-04-14 02:40:00,39.1,34.7,29.91,SSW,197,0.0,2.0,84,0.00,,,0.00,VWS V14.01,2013-04-14 06:40:00,
2013-04-14 02:45:00,38.8,34.7,29.91,SSW,197,0.0,2.0,85,0.00,,,0.00,VWS V14.01,2013-04-14 06:45:00,
2013-04-14 02:50:00,38.6,34.5,29.91,SSW,197,0.0,2.0,85,0.00,,,0.00,VWS V14.01,2013-04-14 06:50:00,
2013-04-14 02:55:00,38.4,34.6,29.91,SSW,197,0.0,2.0,86,0.00,,,0.00,VWS V14.01,2013-04-14 06:55:00,
2013-04-14 03:00:00,38.0,34.2,29.91,SSW,197,0.0,2.0,86,0.00,,,0.00,VWS V14.01,2013-04-14 07:00:00,
2013-04-14 03:05:00,37.8,34.3,29.91,SSW,197,0.0,0.0,87,0.00,,,0.00,VWS V14.01,2013-04-14 07:05:00,
2013-04-14 03:10:00,37.5,34.0,29.91,SSW,197,0.0,0.0,87,0.00,,,0.00,VWS V14.01,2013-04-14 07:10:00,
2013-04-14 03:15:00,37.2,34.0,29.91,SSW,196,0.0,0.0,88,0.00,,,0.00,VWS V14.01,2013-04-14 07:15:00,
2013-04-14 03:20:00,37.0,33.8,29.91,SSW,197,0.0,0.0,88,0.00,,,0.00,VWS V14.01,2013-04-14 07:20:00,
2013-04-14 03:25:00,36.8,33.9,29.91,SSW,197,0.0,0.0,89,0.00,,,0.00,VWS V14.01,2013-04-14 07:25:00,
2013-04-14 03:30:00,36.6,33.7,29.91,SSW,197,0.0,0.0,89,0.00,,,0.00,VWS V14.01,2013-04-14 07:30:00,
2013-04-14 03:35:00,36.5,33.6,29.91,SSW,197,0.0,1.0,89,0.00,,,0.00,VWS V14.01,2013-04-14 07:35:00,
2013-04-14 03:40:00,36.4,33.5,29.91,SSW,197,0.0,1.0,89,0.00,,,0.00,VWS V14.01,2013-04-14 07:40:00,
2013-04-14 03:45:00,36.2,33.3,29.91,SSW,197,0.0,1.0,89,0.00,,,0.00,VWS V14.01,2013-04-14 07:45:00,
2013-04-14 03:50:00,36.0,33.4,29.91,SSW,196,0.0,1.0,90,0.00,,,0.00,VWS V14.01,2013-04-14 07:50:00,
2013-04-14 03:55:00,35.7,33.1,29.91,SSW,197,0.0,1.0,90,0.00,,,0.00,VWS V14.01,2013-04-14 07:55:00,
2013-04-14 04:00:00,35.6,33.0,29.91,SSW,197,0.0,1.0,90,0.00,,,0.00,VWS V14.01,2013-04-14 08:00:00,
2013-04-14 04:05:00,35.4,33.0,29.91,SSW,197,0.0,0.0,91,0.00,,,0.00,VWS V14.01,2013-04-14 08:05:00,
2013-04-14 04:10:00,35.4,33.0,29.92,SSW,197,0.0,0.0,91,0.00,,,0.00,VWS V14.01,2013-04-14 08:10:00,
2013-04-14 04:15:00,35.4,33.0,29.92,SSW,197,0.0,0.0,91,0.00,,,0.00,VWS V14.01,2013-04-14 08:15:00,
2013-04-14 04:20:00,35.6,33.2,29.92,SSW,197,0.0,0.0,91,0.00,,,0.00,VWS V14.01,2013-04-14 08:20:00,
2013-04-14 04:25:00,35.7,33.3,29.92,SSW,197,0.0,0.0,91,0.00,,,0.00,VWS V14.01,2013-04-14 08:25:00,
2013-04-14 04:30:00,35.8,33.4,29.92,SSW,197,0.0,0.0,91,0.00,,,0.00,VWS V14.01,2013-04-14 08:30:00,
2013-04-14 04:35:00,35.9,33.5,29.92,SSW,197,0.0,1.0,91,0.00,,,0.00,VWS V14.01,2013-04-14 08:35:00,
2013-04-14 04:40:00,36.0,33.4,29.92,SSW,197,0.0,1.0,90,0.00,,,0.00,VWS V14.01,2013-04-14 08:40:00,
2013-04-14 04:45:00,36.2,33.6,29.92,SSW,197,0.0,1.0,90,0.00,,,0.00,VWS V14.01,2013-04-14 08:45:00,
2013-04-14 04:50:00,36.4,33.8,29.92,SSW,195,0.0,1.0,90,0.00,,,0.00,VWS V14.01,2013-04-14 08:50:00,
2013-04-14 04:55:00,36.6,34.0,29.93,SSW,196,0.0,1.0,90,0.00,,,0.00,VWS V14.01,2013-04-14 08:55:00,
2013-04-14 05:00:00,36.6,34.0,29.93,SSW,195,0.0,1.0,90,0.00,,,0.00,VWS V14.01,2013-04-14 09:00:00,
2013-04-14 05:05:00,36.8,34.2,29.93,SSW,197,0.0,0.0,90,0.00,,,0.00,VWS V14.01,2013-04-14 09:05:00,
2013-04-14 05:10:00,36.8,33.9,29.93,SSW,197,0.0,0.0,89,0.00,,,0.00,VWS V14.01,2013-04-14 09:10:00,
2013-04-14 05:15:00,36.8,33.9,29.93,SSW,195,0.0,0.0,89,0.00,,,0.00,VWS V14.01,2013-04-14 09:15:00,
2013-04-14 05:20:00,36.9,34.0,29.94,SSW,195,0.0,0.0,89,0.00,,,0.00,VWS V14.01,2013-04-14 09:20:00,
2013-04-14 05:25:00,37.1,34.2,29.94,SSW,197,0.0,0.0,89,0.00,,,0.00,VWS V14.01,2013-04-14 09:25:00,
2013-04-14 05:30:00,37.2,34.3,29.94,SSW,195,0.0,0.0,89,0.00,,,0.00,VWS V14.01,2013-04-14 09:30:00,
2013-04-14 05:35:00,37.3,34.4,29.94,SSW,195,0.0,0.0,89,0.00,,,0.00,VWS V14.01,2013-04-14 09:35:00,
2013-04-14 05:40:00,37.4,34.5,29.95,SSW,195,0.0,0.0,89,0.00,,,0.00,VWS V14.01,2013-04-14 09:40:00,
2013-04-14 05:45:00,37.5,34.6,29.94,SSW,195,0.0,0.0,89,0.00,,,0.00,VWS V14.01,2013-04-14 09:45:00,
2013-04-14 05:50:00,37.6,34.7,29.94,SSW,195,0.0,0.0,89,0.00,,,0.00,VWS V14.01,2013-04-14 09:50:00,
2013-04-14 05:55:00,37.6,34.7,29.95,SSW,197,0.0,0.0,89,0.00,,,0.00,VWS V14.01,2013-04-14 09:55:00,
2013-04-14 06:00:00,37.7,34.8,29.95,SSW,195,0.0,0.0,89,0.00,,,0.00,VWS V14.01,2013-04-14 10:00:00,
2013-04-14 06:05:00,37.7,34.8,29.95,SSW,197,0.0,0.0,89,0.00,,,0.00,VWS V14.01,2013-04-14 10:05:00,
2013-04-14 06:10:00,37.6,34.7,29.94,SSW,197,0.0,0.0,89,0.00,,,0.00,VWS V14.01,2013-04-14 10:10:00,
2013-04-14 06:15:00,37.6,34.7,29.94,SSW,195,0.0,0.0,89,0.00,,,0.00,VWS V14.01,2013-04-14 10:15:00,
2013-04-14 06:20:00,37.7,35.0,29.95,SSW,197,0.0,0.0,90,0.00,,,0.00,VWS V14.01,2013-04-14 10:20:00,
2013-04-14 06:25:00,37.8,35.1,29.95,SSW,195,0.0,0.0,90,0.00,,,0.00,VWS V14.01,2013-04-14 10:25:00,
2013-04-14 06:30:00,37.9,35.0,29.96,SSW,195,0.0,0.0,89,0.00,,,0.00,VWS V14.01,2013-04-14 10:30:00,
2013-04-14 06:35:00,37.9,35.0,29.96,SSW,195,0.0,0.0,89,0.00,,,0.00,VWS V14.01,2013-04-14 10:35:00,
2013-04-14 06:40:00,38.0,35.0,29.97,SSW,197,0.0,0.0,89,0.00,,,0.00,VWS V14.01,2013-04-14 10:40:00,
2013-04-14 06:45:00,38.0,34.8,29.96,SSW,195,0.0,0.0,88,0.00,,,0.00,VWS V14.01,2013-04-14 10:45:00,
2013-04-14 06:50:00,38.0,34.8,29.97,SSW,197,0.0,0.0,88,0.00,,,0.00,VWS V14.01,2013-04-14 10:50:00,
2013-04-14 06:55:00,38.0,34.8,29.97,SSW,195,0.0,0.0,88,0.00,,,0.00,VWS V14.01,2013-04-14 10:55:00,
2013-04-14 07:00:00,38.0,34.8,29.97,SSW,195,0.0,0.0,88,0.00,,,0.00,VWS V14.01,2013-04-14 11:00:00,
2013-04-14 07:05:00,38.0,35.0,29.97,SSW,195,0.0,0.0,89,0.00,,,0.00,VWS V14.01,2013-04-14 11:05:00,
2013-04-14 07:10:00,38.0,35.0,29.97,SSW,195,0.0,0.0,89,0.00,,,0.00,VWS V14.01,2013-04-14 11:10:00,
2013-04-14 07:15:00,38.0,35.0,29.97,SSW,195,0.0,0.0,89,0.00,,,0.00,VWS V14.01,2013-04-14 11:15:00,
2013-04-14 07:20:00,38.0,35.0,29.97,SSW,195,0.0,0.0,89,0.00,,,0.00,VWS V14.01,2013-04-14 11:20:00,
2013-04-14 07:25:00,38.2,35.2,29.98,SSW,195,0.0,1.0,89,0.00,,,0.00,VWS V14.01,2013-04-14 11:25:00,
2013-04-14 07:30:00,38.3,35.3,29.98,SSW,195,0.0,1.0,89,0.00,,,0.00,VWS V14.01,2013-04-14 11:30:00,
2013-04-14 07:35:00,38.3,35.3,29.98,SSW,195,0.0,1.0,89,0.00,,,0.00,VWS V14.01,2013-04-14 11:35:00,
2013-04-14 07:40:00,38.4,35.5,29.98,SSW,195,0.0,1.0,89,0.00,,,0.00,VWS V14.01,2013-04-14 11:40:00,
2013-04-14 07:45:00,38.5,35.5,29.98,SSW,195,0.0,1.0,89,0.00,,,0.00,VWS V14.01,2013-04-14 11:45:00,
2013-04-14 07:50:00,38.6,35.6,29.97,SSW,195,0.0,1.0,89,0.00,,,0.00,VWS V14.01,2013-04-14 11:50:00,
2013-04-14 07:55:00,38.6,35.6,29.97,SSW,195,0.0,1.0,89,0.00,,,0.00,VWS V14.01,2013-04-14 11:55:00,
2013-04-14 08:00:00,38.8,36.1,29.97,SSW,195,0.0,1.0,90,0.00,,,0.00,VWS V14.01,2013-04-14 12:00:00,
2013-04-14 08:05:00,38.9,36.2,29.96,SSW,196,0.0,0.0,90,0.00,,,0.00,VWS V14.01,2013-04-14 12:05:00,
2013-04-14 08:10:00,39.1,36.4,29.96,SSW,195,0.0,0.0,90,0.00,,,0.00,VWS V14.01,2013-04-14 12:10:00,
2013-04-14 08:15:00,39.3,36.6,29.96,SSW,195,0.0,0.0,90,0.00,,,0.00,VWS V14.01,2013-04-14 12:15:00,
2013-04-14 08:20:00,39.6,36.6,29.96,SSW,195,0.0,0.0,89,0.00,,,0.00,VWS V14.01,2013-04-14 12:20:00,
2013-04-14 08:25:00,39.9,36.9,29.97,SSW,195,0.0,0.0,89,0.00,,,0.00,VWS V14.01,2013-04-14 12:25:00,
2013-04-14 08:30:00,40.2,36.7,29.97,ESE,120,0.0,1.0,87,0.00,,,0.00,VWS V14.01,2013-04-14 12:30:00,
2013-04-14 08:35:00,40.5,36.7,29.97,ESE,121,0.0,1.0,86,0.00,,,0.00,VWS V14.01,2013-04-14 12:35:00,
2013-04-14 08:40:00,40.8,36.9,29.97,ESE,122,0.0,1.0,86,0.00,,,0.00,VWS V14.01,2013-04-14 12:40:00,
2013-04-14 08:45:00,40.9,36.8,29.97,ESE,121,0.0,1.0,85,0.00,,,0.00,VWS V14.01,2013-04-14 12:45:00,
2013-04-14 08:50:00,41.2,37.0,29.97,ESE,108,0.0,1.0,85,0.00,,,0.00,VWS V14.01,2013-04-14 12:50:00,
2013-04-14 08:55:00,41.3,36.8,29.97,East,101,2.0,2.0,84,0.00,,,0.00,VWS V14.01,2013-04-14 12:55:00,
2013-04-14 09:00:00,41.2,36.7,29.97,East,100,0.0,2.0,84,0.00,,,0.00,VWS V14.01,2013-04-14 13:00:00,
2013-04-14 09:05:00,41.3,36.8,29.97,East,101,0.0,1.0,84,0.00,,,0.00,VWS V14.01,2013-04-14 13:05:00,
2013-04-14 09:10:00,41.4,36.3,29.98,East,94,1.0,2.0,82,0.00,,,0.00,VWS V14.01,2013-04-14 13:10:00,
2013-04-14 09:15:00,41.5,35.8,29.98,East,84,0.0,3.0,80,0.00,,,0.00,VWS V14.01,2013-04-14 13:15:00,
2013-04-14 09:20:00,41.5,35.8,29.98,ESE,121,2.0,3.0,80,0.00,,,0.00,VWS V14.01,2013-04-14 13:20:00,
2013-04-14 09:25:00,41.5,35.8,29.97,ESE,114,1.0,3.0,80,0.00,,,0.00,VWS V14.01,2013-04-14 13:25:00,
2013-04-14 09:30:00,41.7,36.3,29.97,SE,129,1.0,3.0,81,0.00,,,0.00,VWS V14.01,2013-04-14 13:30:00,
2013-04-14 09:35:00,41.8,35.8,29.97,ESE,111,1.0,4.0,79,0.00,,,0.00,VWS V14.01,2013-04-14 13:35:00,
2013-04-14 09:40:00,42.2,35.8,29.97,ESE,115,1.0,4.0,78,0.00,,,0.00,VWS V14.01,2013-04-14 13:40:00,
2013-04-14 09:45:00,42.6,35.6,29.97,ESE,108,0.0,4.0,76,0.00,,,0.00,VWS V14.01,2013-04-14 13:45:00,
2013-04-14 09:50:00,42.7,35.7,29.98,ESE,104,0.0,4.0,76,0.00,,,0.00,VWS V14.01,2013-04-14 13:50:00,
2013-04-14 09:55:00,42.8,35.8,29.99,ESE,108,0.0,4.0,76,0.00,,,0.00,VWS V14.01,2013-04-14 13:55:00,
2013-04-14 10:00:00,42.8,35.4,29.99,SE,130,1.0,4.0,75,0.00,,,0.00,VWS V14.01,2013-04-14 14:00:00,
2013-04-14 10:05:00,42.7,35.7,30.00,SE,139,0.0,2.0,76,0.00,,,0.00,VWS V14.01,2013-04-14 14:05:00,
2013-04-14 10:10:00,42.8,36.4,29.99,SE,139,1.0,2.0,78,0.00,,,0.00,VWS V14.01,2013-04-14 14:10:00,
2013-04-14 10:15:00,42.8,36.4,29.98,SE,139,2.0,2.0,78,0.00,,,0.00,VWS V14.01,2013-04-14 14:15:00,
2013-04-14 10:20:00,42.7,36.3,29.98,SE,141,1.0,3.0,78,0.00,,,0.00,VWS V14.01,2013-04-14 14:20:00,
2013-04-14 10:25:00,42.7,36.7,29.99,SE,135,1.0,3.0,79,0.00,,,0.00,VWS V14.01,2013-04-14 14:25:00,
2013-04-14 10:30:00,42.5,36.8,29.99,SE,133,0.0,3.0,80,0.00,,,0.00,VWS V14.01,2013-04-14 14:30:00,
2013-04-14 10:35:00,42.6,36.9,30.00,SE,132,0.0,3.0,80,0.00,,,0.00,VWS V14.01,2013-04-14 14:35:00,
2013-04-14 10:40:00,42.6,36.9,30.00,SE,132,0.0,3.0,80,0.00,,,0.00,VWS V14.01,2013-04-14 14:40:00,
2013-04-14 10:45:00,42.7,37.3,30.00,SE,133,0.0,3.0,81,0.00,,,0.00,VWS V14.01,2013-04-14 14:45:00,
2013-04-14 10:50:00,42.7,37.3,30.00,SE,132,0.0,3.0,81,0.00,,,0.00,VWS V14.01,2013-04-14 14:50:00,
2013-04-14 10:55:00,42.7,37.3,30.00,SE,132,0.0,3.0,81,0.00,,,0.00,VWS V14.01,2013-04-14 14:55:00,
2013-04-14 11:00:00,42.7,37.0,29.99,SE,133,0.0,3.0,80,0.00,,,0.00,VWS V14.01,2013-04-14 15:00:00,
2013-04-14 11:05:00,42.7,37.0,29.99,SE,133,1.0,1.0,80,0.00,,,0.00,VWS V14.01,2013-04-14 15:05:00,
2013-04-14 11:10:00,42.7,37.3,29.99,SE,132,0.0,1.0,81,0.00,,,0.00,VWS V14.01,2013-04-14 15:10:00,
2013-04-14 11:15:00,42.8,37.4,29.99,SE,132,0.0,1.0,81,0.00,,,0.00,VWS V14.01,2013-04-14 15:15:00,
2013-04-14 11:20:00,43.1,38.0,29.99,SE,133,1.0,1.0,82,0.00,,,0.00,VWS V14.01,2013-04-14 15:20:00,
2013-04-14 11:25:00,43.2,37.8,29.98,SE,133,1.0,1.0,81,0.00,,,0.00,VWS V14.01,2013-04-14 15:25:00,
2013-04-14 11:30:00,43.3,37.6,29.98,SE,133,1.0,2.0,80,0.00,,,0.00,VWS V14.01,2013-04-14 15:30:00,
2013-04-14 11:35:00,43.5,38.1,29.98,SE,132,2.0,2.0,81,0.00,,,0.00,VWS V14.01,2013-04-14 15:35:00,
2013-04-14 11:40:00,43.7,38.0,29.98,SE,131,0.0,2.0,80,0.00,,,0.00,VWS V14.01,2013-04-14 15:40:00,
2013-04-14 11:45:00,43.9,37.8,29.97,SE,132,0.0,2.0,79,0.00,,,0.00,VWS V14.01,2013-04-14 15:45:00,
2013-04-14 11:50:00,44.0,38.2,29.98,SE,133,0.0,3.0,80,0.00,,,0.00,VWS V14.01,2013-04-14 15:50:00,
2013-04-14 11:55:00,44.4,38.9,29.97,SE,134,1.0,3.0,81,0.00,,,0.00,VWS V14.01,2013-04-14 15:55:00,
2013-04-14 12:00:00,45.0,39.5,29.97,SE,133,1.0,3.0,81,0.00,,,0.00,VWS V14.01,2013-04-14 16:00:00,
2013-04-14 12:05:00,45.3,38.5,29.97,ESE,115,2.0,4.0,77,0.00,,,0.00,VWS V14.01,2013-04-14 16:05:00,
2013-04-14 12:10:00,45.5,38.4,29.96,ESE,120,3.0,4.0,76,0.00,,,0.00,VWS V14.01,2013-04-14 16:10:00,
2013-04-14 12:15:00,45.9,38.8,29.96,SE,134,2.0,4.0,76,0.00,,,0.00,VWS V14.01,2013-04-14 16:15:00,
2013-04-14 12:20:00,46.5,38.0,29.96,SE,134,0.0,4.0,72,0.00,,,0.00,VWS V14.01,2013-04-14 16:20:00,
2013-04-14 12:25:00,46.9,39.1,29.96,East,86,3.0,4.0,74,0.00,,,0.00,VWS V14.01,2013-04-14 16:25:00,
2013-04-14 12:30:00,47.2,39.0,29.96,SE,129,1.0,4.0,73,0.00,,,0.00,VWS V14.01,2013-04-14 16:30:00,
2013-04-14 12:35:00,47.6,38.7,29.96,SE,137,2.0,4.0,71,0.00,,,0.00,VWS V14.01,2013-04-14 16:35:00,
2013-04-14 12:40:00,47.7,39.5,29.96,SE,144,2.0,4.0,73,0.00,,,0.00,VWS V14.01,2013-04-14 16:40:00,
2013-04-14 12:45:00,47.9,39.0,29.96,SE,143,0.0,4.0,71,0.00,,,0.00,VWS V14.01,2013-04-14 16:45:00,
2013-04-14 12:50:00,48.4,39.4,29.95,ESE,111,1.0,5.0,71,0.00,,,0.00,VWS V14.01,2013-04-14 16:50:00,
2013-04-14 12:55:00,48.3,39.0,29.95,SE,136,1.0,5.0,70,0.00,,,0.00,VWS V14.01,2013-04-14 16:55:00,
2013-04-14 13:00:00,48.3,39.0,29.96,SE,124,1.0,5.0,70,0.00,,,0.00,VWS V14.01,2013-04-14 17:00:00,
2013-04-14 13:05:00,48.5,39.5,29.96,ESE,115,1.0,3.0,71,0.00,,,0.00,VWS V14.01,2013-04-14 17:05:00,
2013-04-14 13:10:00,48.9,39.2,29.95,SE,126,1.0,3.0,69,0.00,,,0.00,VWS V14.01,2013-04-14 17:10:00,
2013-04-14 13:15:00,49.4,40.8,29.95,SE,138,2.0,3.0,72,0.00,,,0.00,VWS V14.01,2013-04-14 17:15:00,
2013-04-14 13:20:00,49.9,39.4,29.94,SE,125,2.0,3.0,67,0.00,,,0.00,VWS V14.01,2013-04-14 17:20:00,
2013-04-14 13:25:00,50.0,39.1,29.95,SE,139,2.0,6.0,66,0.00,,,0.00,VWS V14.01,2013-04-14 17:25:00,
2013-04-14 13:30:00,50.1,40.0,29.94,SE,141,1.0,6.0,68,0.00,,,0.00,VWS V14.01,2013-04-14 17:30:00,
2013-04-14 13:35:00,50.5,39.6,29.94,SE,127,1.0,6.0,66,0.00,,,0.00,VWS V14.01,2013-04-14 17:35:00,
2013-04-14 13:40:00,51.1,41.3,29.93,East,98,2.0,6.0,69,0.00,,,0.00,VWS V14.01,2013-04-14 17:40:00,
2013-04-14 13:45:00,51.5,41.3,29.93,East,79,0.0,6.0,68,0.00,,,0.00,VWS V14.01,2013-04-14 17:45:00,
2013-04-14 13:50:00,51.8,42.0,29.93,ESE,109,0.0,6.0,69,0.00,,,0.00,VWS V14.01,2013-04-14 17:50:00,
2013-04-14 13:55:00,51.9,40.9,29.93,ESE,107,2.0,6.0,66,0.00,,,0.00,VWS V14.01,2013-04-14 17:55:00,
2013-04-14 14:00:00,52.0,40.6,29.92,SE,125,0.0,6.0,65,0.00,,,0.00,VWS V14.01,2013-04-14 18:00:00,
2013-04-14 14:05:00,52.3,40.1,29.92,SE,134,1.0,5.0,63,0.00,,,0.00,VWS V14.01,2013-04-14 18:05:00,
2013-04-14 14:10:00,52.4,40.6,29.93,ESE,121,4.0,5.0,64,0.00,,,0.00,VWS V14.01,2013-04-14 18:10:00,
2013-04-14 14:15:00,52.4,40.6,29.93,SE,127,1.0,5.0,64,0.00,,,0.00,VWS V14.01,2013-04-14 18:15:00,
2013-04-14 14:20:00,52.8,40.6,29.92,ESE,117,2.0,5.0,63,0.00,,,0.00,VWS V14.01,2013-04-14 18:20:00,
2013-04-14 14:25:00,53.1,41.7,29.92,East,88,1.0,5.0,65,0.00,,,0.00,VWS V14.01,2013-04-14 18:25:00,
2013-04-14 14:30:00,53.4,41.9,29.92,East,86,3.0,5.0,65,0.00,,,0.00,VWS V14.01,2013-04-14 18:30:00,
2013-04-14 14:35:00,53.4,41.5,29.92,ESE,119,3.0,5.0,64,0.00,,,0.00,VWS V14.01,2013-04-14 18:35:00,
2013-04-14 14:40:00,53.4,41.9,29.91,ESE,115,3.0,5.0,65,0.00,,,0.00,VWS V14.01,2013-04-14 18:40:00,
2013-04-14 14:45:00,53.5,41.6,29.91,ESE,118,3.0,5.0,64,0.00,,,0.00,VWS V14.01,2013-04-14 18:45:00,
2013-04-14 14:50:00,53.7,41.8,29.91,ESE,123,2.0,5.0,64,0.00,,,0.00,VWS V14.01,2013-04-14 18:50:00,
2013-04-14 14:55:00,54.4,42.9,29.91,ESE,119,1.0,5.0,65,0.00,,,0.00,VWS V14.01,2013-04-14 18:55:00,
2013-04-14 15:00:00,54.4,41.7,29.91,SE,139,4.0,6.0,62,0.00,,,0.00,VWS V14.01,2013-04-14 19:00:00,
2013-04-14 15:05:00,54.3,41.6,29.91,ESE,120,3.0,6.0,62,0.00,,,0.00,VWS V14.01,2013-04-14 19:05:00,
2013-04-14 15:10:00,54.2,40.2,29.91,SE,144,2.0,6.0,59,0.00,,,0.00,VWS V14.01,2013-04-14 19:10:00,
2013-04-14 15:15:00,53.9,40.8,29.90,SE,135,3.0,6.0,61,0.00,,,0.00,VWS V14.01,2013-04-14 19:15:00,
2013-04-14 15:20:00,54.0,41.3,29.90,SE,142,3.0,6.0,62,0.00,,,0.00,VWS V14.01,2013-04-14 19:20:00,
2013-04-14 15:25:00,54.4,41.7,29.90,ESE,123,1.0,6.0,62,0.00,,,0.00,VWS V14.01,2013-04-14 19:25:00,
2013-04-14 15:30:00,54.8,41.6,29.90,SE,124,3.0,6.0,61,0.00,,,0.00,VWS V14.01,2013-04-14 19:30:00,
2013-04-14 15:35:00,55.0,41.4,29.89,ESE,105,4.0,6.0,60,0.00,,,0.00,VWS V14.01,2013-04-14 19:35:00,
2013-04-14 15:40:00,54.7,41.1,29.89,ESE,122,1.0,6.0,60,0.00,,,0.00,VWS V14.01,2013-04-14 19:40:00,
2013-04-14 15:45:00,55.1,42.8,29.89,ESE,114,2.0,6.0,63,0.00,,,0.00,VWS V14.01,2013-04-14 19:45:00,
2013-04-14 15:50:00,55.4,43.4,29.88,ESE,113,1.0,6.0,64,0.00,,,0.00,VWS V14.01,2013-04-14 19:50:00,
2013-04-14 15:55:00,55.8,42.1,29.88,ESE,105,2.0,6.0,60,0.00,,,0.00,VWS V14.01,2013-04-14 19:55:00,
2013-04-14 16:00:00,55.9,42.7,29.88,SE,125,2.0,6.0,61,0.00,,,0.00,VWS V14.01,2013-04-14 20:00:00,
2013-04-14 16:05:00,55.8,43.0,29.88,SE,131,2.0,4.0,62,0.00,,,0.00,VWS V14.01,2013-04-14 20:05:00,
2013-04-14 16:10:00,55.8,43.0,29.87,East,82,4.0,5.0,62,0.00,,,0.00,VWS V14.01,2013-04-14 20:10:00,
2013-04-14 16:15:00,55.7,42.5,29.88,ESE,122,2.0,5.0,61,0.00,,,0.00,VWS V14.01,2013-04-14 20:15:00,
2013-04-14 16:20:00,55.8,43.0,29.87,ESE,122,3.0,5.0,62,0.00,,,0.00,VWS V14.01,2013-04-14 20:20:00,
2013-04-14 16:25:00,55.9,43.5,29.87,ESE,110,3.0,5.0,63,0.00,,,0.00,VWS V14.01,2013-04-14 20:25:00,
2013-04-14 16:30:00,55.9,43.1,29.87,East,92,3.0,6.0,62,0.00,,,0.00,VWS V14.01,2013-04-14 20:30:00,
2013-04-14 16:35:00,55.7,43.3,29.87,SE,135,2.0,6.0,63,0.00,,,0.00,VWS V14.01,2013-04-14 20:35:00,
2013-04-14 16:40:00,55.6,43.6,29.86,East,98,4.0,6.0,64,0.00,,,0.00,VWS V14.01,2013-04-14 20:40:00,
2013-04-14 16:45:00,55.3,43.3,29.86,ESE,122,1.0,6.0,64,0.00,,,0.00,VWS V14.01,2013-04-14 20:45:00,
2013-04-14 16:50:00,55.2,43.7,29.87,ESE,110,3.0,6.0,65,0.00,,,0.00,VWS V14.01,2013-04-14 20:50:00,
2013-04-14 16:55:00,54.8,44.1,29.87,ESE,114,0.0,6.0,67,0.00,,,0.00,VWS V14.01,2013-04-14 20:55:00,
2013-04-14 17:00:00,55.0,45.0,29.87,East,91,3.0,6.0,69,0.00,,,0.00,VWS V14.01,2013-04-14 21:00:00,
2013-04-14 17:05:00,54.7,44.4,29.87,East,79,2.0,4.0,68,0.00,,,0.00,VWS V14.01,2013-04-14 21:05:00,
2013-04-14 17:10:00,54.7,44.7,29.87,East,88,3.0,4.0,69,0.00,,,0.00,VWS V14.01,2013-04-14 21:10:00,
2013-04-14 17:15:00,54.6,44.3,29.87,ESE,108,2.0,5.0,68,0.00,,,0.00,VWS V14.01,2013-04-14 21:15:00,
2013-04-14 17:20:00,54.6,44.7,29.87,East,90,3.0,5.0,69,0.00,,,0.00,VWS V14.01,2013-04-14 21:20:00,
2013-04-14 17:25:00,54.5,44.5,29.87,SE,127,1.0,5.0,69,0.00,,,0.00,VWS V14.01,2013-04-14 21:25:00,
2013-04-14 17:30:00,54.2,44.3,29.87,ESE,113,2.0,5.0,69,0.00,,,0.00,VWS V14.01,2013-04-14 21:30:00,
2013-04-14 17:35:00,54.2,44.6,29.87,East,91,2.0,5.0,70,0.00,,,0.00,VWS V14.01,2013-04-14 21:35:00,
2013-04-14 17:40:00,53.8,44.3,29.87,East,82,4.0,5.0,70,0.00,,,0.00,VWS V14.01,2013-04-14 21:40:00,
2013-04-14 17:45:00,53.6,44.4,29.87,East,101,1.0,5.0,71,0.00,,,0.00,VWS V14.01,2013-04-14 21:45:00,
2013-04-14 17:50:00,53.6,44.8,29.87,ESE,114,0.0,5.0,72,0.00,,,0.00,VWS V14.01,2013-04-14 21:50:00,
2013-04-14 17:55:00,53.4,43.9,29.87,East,101,1.0,5.0,70,0.00,,,0.00,VWS V14.01,2013-04-14 21:55:00,
2013-04-14 18:00:00,53.1,44.0,29.87,ESE,123,2.0,6.0,71,0.00,,,0.00,VWS V14.01,2013-04-14 22:00:00,
2013-04-14 18:05:00,52.9,43.4,29.86,ESE,120,2.0,4.0,70,0.00,,,0.00,VWS V14.01,2013-04-14 22:05:00,
2013-04-14 18:10:00,52.8,44.0,29.86,East,86,0.0,4.0,72,0.00,,,0.00,VWS V14.01,2013-04-14 22:10:00,
2013-04-14 18:15:00,52.8,44.0,29.86,ESE,118,2.0,5.0,72,0.00,,,0.00,VWS V14.01,2013-04-14 22:15:00,
2013-04-14 18:20:00,52.8,43.7,29.86,East,85,2.0,5.0,71,0.00,,,0.00,VWS V14.01,2013-04-14 22:20:00,
2013-04-14 18:25:00,52.5,43.8,29.86,ESE,110,1.0,5.0,72,0.00,,,0.00,VWS V14.01,2013-04-14 22:25:00,
2013-04-14 18:30:00,52.3,42.8,29.86,ENE,77,3.0,5.0,70,0.00,,,0.00,VWS V14.01,2013-04-14 22:30:00,
2013-04-14 18:35:00,52.0,42.9,29.86,ESE,113,1.0,5.0,71,0.00,,,0.00,VWS V14.01,2013-04-14 22:35:00,
2013-04-14 18:40:00,51.7,42.6,29.86,ESE,107,2.0,5.0,71,0.00,,,0.00,VWS V14.01,2013-04-14 22:40:00,
2013-04-14 18:45:00,51.6,42.5,29.86,East,83,1.0,5.0,71,0.00,,,0.00,VWS V14.01,2013-04-14 22:45:00,
2013-04-14 18:50:00,51.3,42.6,29.86,ESE,118,0.0,5.0,72,0.00,,,0.00,VWS V14.01,2013-04-14 22:50:00,
2013-04-14 18:55:00,51.2,42.9,29.86,East,98,0.0,5.0,73,0.00,,,0.00,VWS V14.01,2013-04-14 22:55:00,
2013-04-14 19:00:00,51.0,42.3,29.86,ESE,107,1.0,5.0,72,0.00,,,0.00,VWS V14.01,2013-04-14 23:00:00,
2013-04-14 19:05:00,50.8,42.8,29.86,ESE,104,1.0,3.0,74,0.00,,,0.00,VWS V14.01,2013-04-14 23:05:00,
2013-04-14 19:10:00,50.5,42.2,29.86,East,92,2.0,3.0,73,0.00,,,0.00,VWS V14.01,2013-04-14 23:10:00,
2013-04-14 19:15:00,50.2,41.5,29.85,ESE,115,2.0,4.0,72,0.00,,,0.00,VWS V14.01,2013-04-14 23:15:00,
2013-04-14 19:20:00,49.9,41.2,29.85,East,87,2.0,4.0,72,0.00,,,0.00,VWS V14.01,2013-04-14 23:20:00,
2013-04-14 19:25:00,49.6,41.7,29.85,SE,124,1.0,4.0,74,0.00,,,0.00,VWS V14.01,2013-04-14 23:25:00,
2013-04-14 19:30:00,49.5,41.9,29.85,ESE,109,2.0,4.0,75,0.00,,,0.00,VWS V14.01,2013-04-14 23:30:00,
2013-04-14 19:35:00,49.2,41.6,29.85,ENE,72,3.0,6.0,75,0.00,,,0.00,VWS V14.01,2013-04-14 23:35:00,
2013-04-14 19:40:00,49.0,41.8,29.84,ESE,118,2.0,6.0,76,0.00,,,0.00,VWS V14.01,2013-04-14 23:40:00,
2013-04-14 19:45:00,48.8,42.6,29.84,East,100,1.0,6.0,79,0.00,,,0.00,VWS V14.01,2013-04-14 23:45:00,
2013-04-14 19:50:00,48.4,42.2,29.84,East,86,1.0,6.0,79,0.00,,,0.00,VWS V14.01,2013-04-14 23:50:00,
2013-04-14 19:55:00,47.9,42.0,29.84,East,85,1.0,6.0,80,0.00,,,0.00,VWS V14.01,2013-04-14 23:55:00,
2013-04-14 20:00:00,47.4,41.5,29.84,East,96,2.0,6.0,80,0.00,,,0.00,VWS V14.01,2013-04-15 00:00:00,
2013-04-14 20:05:00,46.9,41.1,29.85,East,93,0.0,3.0,80,0.00,,,0.00,VWS V14.01,2013-04-15 00:05:00,
2013-04-14 20:10:00,46.6,41.1,29.85,East,82,0.0,5.0,81,0.00,,,0.00,VWS V14.01,2013-04-15 00:10:00,
2013-04-14 20:15:00,46.4,41.2,29.85,East,100,1.0,5.0,82,0.00,,,0.00,VWS V14.01,2013-04-15 00:15:00,
2013-04-14 20:20:00,46.1,40.9,29.85,ESE,102,2.0,5.0,82,0.00,,,0.00,VWS V14.01,2013-04-15 00:20:00,
2013-04-14 20:25:00,45.9,40.7,29.85,East,88,2.0,5.0,82,0.00,,,0.00,VWS V14.01,2013-04-15 00:25:00,
2013-04-14 20:30:00,45.6,40.4,29.85,ESE,111,1.0,5.0,82,0.00,,,0.00,VWS V14.01,2013-04-15 00:30:00,
2013-04-14 20:35:00,45.4,39.9,29.85,ESE,109,0.0,7.0,81,0.00,,,0.00,VWS V14.01,2013-04-15 00:35:00,
2013-04-14 20:40:00,45.2,40.0,29.85,ESE,106,1.0,7.0,82,0.00,,,0.00,VWS V14.01,2013-04-15 00:40:00,
2013-04-14 20:45:00,45.1,39.9,29.85,East,91,1.0,7.0,82,0.00,,,0.00,VWS V14.01,2013-04-15 00:45:00,
2013-04-14 20:50:00,44.8,39.7,29.84,ESE,106,1.0,7.0,82,0.00,,,0.00,VWS V14.01,2013-04-15 00:50:00,
2013-04-14 20:55:00,44.6,39.8,29.84,East,98,1.0,7.0,83,0.00,,,0.00,VWS V14.01,2013-04-15 00:55:00,
2013-04-14 21:00:00,44.4,39.3,29.84,East,86,1.0,7.0,82,0.00,,,0.00,VWS V14.01,2013-04-15 01:00:00,
2013-04-14 21:05:00,44.1,39.3,29.84,ESE,106,1.0,3.0,83,0.00,,,0.00,VWS V14.01,2013-04-15 01:05:00,
2013-04-14 21:10:00,44.0,39.2,29.84,East,91,1.0,4.0,83,0.00,,,0.00,VWS V14.01,2013-04-15 01:10:00,
2013-04-14 21:15:00,43.8,39.0,29.85,East,97,1.0,4.0,83,0.00,,,0.00,VWS V14.01,2013-04-15 01:15:00,
2013-04-14 21:20:00,43.7,38.9,29.84,ESE,115,1.0,6.0,83,0.00,,,0.00,VWS V14.01,2013-04-15 01:20:00,
2013-04-14 21:25:00,43.5,38.7,29.84,East,84,3.0,6.0,83,0.00,,,0.00,VWS V14.01,2013-04-15 01:25:00,
2013-04-14 21:30:00,43.4,38.6,29.84,ESE,112,1.0,6.0,83,0.00,,,0.00,VWS V14.01,2013-04-15 01:30:00,
2013-04-14 21:35:00,43.3,38.8,29.84,East,89,0.0,6.0,84,0.00,,,0.00,VWS V14.01,2013-04-15 01:35:00,
2013-04-14 21:40:00,43.2,38.7,29.84,ESE,105,2.0,6.0,84,0.00,,,0.00,VWS V14.01,2013-04-15 01:40:00,
2013-04-14 21:45:00,43.0,38.5,29.84,ESE,115,1.0,6.0,84,0.00,,,0.00,VWS V14.01,2013-04-15 01:45:00,
2013-04-14 21:50:00,42.9,38.4,29.84,East,96,1.0,6.0,84,0.00,,,0.00,VWS V14.01,2013-04-15 01:50:00,
2013-04-14 21:55:00,42.7,38.5,29.84,East,91,0.0,6.0,85,0.00,,,0.00,VWS V14.01,2013-04-15 01:55:00,
2013-04-14 22:00:00,42.6,38.4,29.84,East,91,0.0,6.0,85,0.00,,,0.00,VWS V14.01,2013-04-15 02:00:00,
2013-04-14 22:05:00,42.5,38.3,29.84,East,98,0.0,2.0,85,0.00,,,0.00,VWS V14.01,2013-04-15 02:05:00,
2013-04-14 22:10:00,42.4,38.5,29.84,ESE,107,1.0,6.0,86,0.00,,,0.00,VWS V14.01,2013-04-15 02:10:00,
2013-04-14 22:15:00,42.3,38.4,29.83,ESE,106,1.0,6.0,86,0.00,,,0.00,VWS V14.01,2013-04-15 02:15:00,
2013-04-14 22:20:00,42.1,38.2,29.83,East,97,3.0,6.0,86,0.00,,,0.00,VWS V14.01,2013-04-15 02:20:00,
2013-04-14 22:25:00,42.0,38.4,29.82,East,95,3.0,6.0,87,0.00,,,0.00,VWS V14.01,2013-04-15 02:25:00,
2013-04-14 22:30:00,41.9,38.3,29.82,ESE,112,2.0,6.0,87,0.00,,,0.00,VWS V14.01,2013-04-15 02:30:00,
2013-04-14 22:35:00,41.9,38.3,29.81,ESE,109,2.0,6.0,87,0.00,,,0.00,VWS V14.01,2013-04-15 02:35:00,
2013-04-14 22:40:00,41.9,38.3,29.82,ESE,108,0.0,6.0,87,0.00,,,0.00,VWS V14.01,2013-04-15 02:40:00,
2013-04-14 22:45:00,41.8,38.5,29.82,ESE,105,0.0,6.0,88,0.00,,,0.00,VWS V14.01,2013-04-15 02:45:00,
2013-04-14 22:50:00,41.8,38.5,29.82,ESE,103,1.0,6.0,88,0.00,,,0.00,VWS V14.01,2013-04-15 02:50:00,
2013-04-14 22:55:00,41.8,38.5,29.81,ESE,105,1.0,6.0,88,0.00,,,0.00,VWS V14.01,2013-04-15 02:55:00,
2013-04-14 23:00:00,41.7,38.4,29.81,East,101,0.0,6.0,88,0.00,,,0.00,VWS V14.01,2013-04-15 03:00:00,
2013-04-14 23:05:00,41.6,38.3,29.82,East,101,0.0,1.0,88,0.00,,,0.00,VWS V14.01,2013-04-15 03:05:00,
2013-04-14 23:10:00,41.5,38.5,29.82,East,101,0.0,2.0,89,0.00,,,0.00,VWS V14.01,2013-04-15 03:10:00,
2013-04-14 23:15:00,41.5,38.5,29.82,East,101,0.0,2.0,89,0.00,,,0.00,VWS V14.01,2013-04-15 03:15:00,
2013-04-14 23:20:00,41.4,38.4,29.81,East,101,1.0,2.0,89,0.00,,,0.00,VWS V14.01,2013-04-15 03:20:00,
2013-04-14 23:25:00,41.3,38.3,29.82,ESE,103,1.0,2.0,89,0.00,,,0.00,VWS V14.01,2013-04-15 03:25:00,
2013-04-14 23:30:00,41.2,38.2,29.82,ESE,103,1.0,2.0,89,0.00,,,0.00,VWS V14.01,2013-04-15 03:30:00,
2013-04-14 23:35:00,41.1,38.4,29.82,ESE,103,1.0,2.0,90,0.00,,,0.00,VWS V14.01,2013-04-15 03:35:00,
2013-04-14 23:40:00,41.1,38.4,29.81,ESE,103,1.0,2.0,90,0.00,,,0.00,VWS V14.01,2013-04-15 03:40:00,
2013-04-14 23:45:00,40.9,38.2,29.81,East,91,0.0,2.0,90,0.00,,,0.00,VWS V14.01,2013-04-15 03:45:00,
2013-04-14 23:50:00,40.8,38.1,29.81,East,97,1.0,2.0,90,0.00,,,0.00,VWS V14.01,2013-04-15 03:50:00,
2013-04-14 23:55:00,40.7,38.0,29.81,ESE,105,0.0,3.0,90,0.00,,,0.00,VWS V14.01,2013-04-15 03:55:00,